This is the latest recevied weather packets stored in our database for station/object WB3EGK. If no packets are shown the sender has not sent any weather packets the latest 10 day(s).
| Time | Temp. | Humidity | Pressure | Rain* | Wind** | Luminosity | Snow |
|---|---|---|---|---|---|---|---|
| 1777742243 | 4.44° C | 1% | 1013.9 hPa | 0 mm | - | 383 W/m² | - |
| 1777741940 | 4.44° C | 1% | 1014.1 hPa | 0 mm | - | 375 W/m² | - |
| 1777741637 | 4.44° C | 1% | 1013.8 hPa | 0 mm | - | 376 W/m² | - |
| 1777741334 | 4.44° C | 1% | 1014 hPa | 0 mm | - | 377 W/m² | - |
| 1777741030 | 4.44° C | 1% | 1013.9 hPa | 0 mm | - | 368 W/m² | - |
| 1777740728 | 4.44° C | 1% | 1014 hPa | 0 mm | - | 324 W/m² | - |
| 1777740423 | 4.44° C | 1% | 1014 hPa | 0 mm | - | 297 W/m² | - |
| 1777740121 | 3.89° C | 1% | 1014 hPa | 0 mm | - | 258 W/m² | - |
| 1777739816 | 3.89° C | 1% | 1014.1 hPa | 0 mm | - | 210 W/m² | - |
| 1777739513 | 3.89° C | 1% | 1013.9 hPa | 0 mm | - | 229 W/m² | - |
| 1777739210 | 3.89° C | 1% | 1013.8 hPa | 0 mm | - | 300 W/m² | - |
| 1777738907 | 3.89° C | 1% | 1014 hPa | 0 mm | - | 337 W/m² | - |
| 1777738604 | 4.44° C | 1% | 1013.8 hPa | 0 mm | - | 382 W/m² | - |
| 1777738301 | 4.44° C | 1% | 1014 hPa | 0 mm | - | 442 W/m² | - |
| 1777737999 | 4.44° C | 1% | 1014.1 hPa | 0 mm | - | 363 W/m² | - |
| 1777737698 | 3.89° C | 1% | 1014 hPa | 0 mm | - | 277 W/m² | - |
| 1777737395 | 3.33° C | 1% | 1014.1 hPa | 0 mm | - | 323 W/m² | - |
| 1777737092 | 3.33° C | 1% | 1014.2 hPa | 0 mm | - | 370 W/m² | - |
| 1777736788 | 3.33° C | 1% | 1013.9 hPa | 0 mm | - | 272 W/m² | - |
| 1777736160 | 2.78° C | 1% | 1014 hPa | 0 mm | - | 252 W/m² | - |
| 1777735857 | 2.78° C | 1% | 1013.7 hPa | 0 mm | - | 260 W/m² | - |
| 1777735555 | 2.78° C | 1% | 1013.7 hPa | 0 mm | - | 225 W/m² | - |
| 1777735252 | 2.78° C | 1% | 1014 hPa | 0 mm | - | 182 W/m² | - |
| 1777734949 | 2.78° C | 1% | 1014 hPa | 0 mm | - | 187 W/m² | - |
| 1777734646 | 2.78° C | 1% | 1013.8 hPa | 0 mm | - | 170 W/m² | - |
* Rain latest hour (hover to see other rain measurements)
** Current wind speed in m/s (hover to see current wind gust speed)